Precipitable_Water
1.86 1.97 2.04 2.06 1.97 1.95 1.96 1.78 1.70 1.73 1.74 1.73 1.71 1.71 1.71 1.79 1.82 1.74 1.61 1.54 1.56 1.59 1.61 1.62 1.56 1.57 1.67 1.73 1.69 1.44 1.43 1.52 1.60 1.67 1.80 1.80 1.81 1.87 1.75 1.74 1.74 1.69 1.57
1.90 1.96 2.03 2.06 1.97 1.97 1.96 1.88 1.88 1.89 1.85 1.79 1.77 1.76 1.80 1.81 1.77 1.71 1.61 1.54 1.50 1.51 1.54 1.54 1.56 1.58 1.68 1.74 1.72 1.57 1.73 1.72 1.76 1.74 1.77 1.84 1.87 1.87 1.70 1.64 1.68 1.70 1.63
1.86 1.94 1.96 2.02 1.94 1.94 1.92 1.93 1.94 1.99 1.98 2.00 1.95 1.87 1.86 1.81 1.74 1.72 1.63 1.58 1.54 1.55 1.64 1.77 1.77 1.77 1.76 1.77 1.85 1.75 1.73 1.77 1.81 1.89 1.87 1.87 1.87 1.84 1.71 1.67 1.67 1.60 1.62
1.88 1.92 1.94 1.97 1.93 1.93 1.93 1.92 1.96 2.01 2.03 2.04 2.03 2.01 1.91 1.86 1.79 1.70 1.63 1.61 1.55 1.56 1.60 1.66 1.76 1.87 1.87 1.88 1.87 1.81 1.79 1.75 1.70 1.78 1.75 1.75 1.88 1.91 1.82 1.75 1.65 1.61 1.63
1.91 1.96 1.97 1.93 1.94 1.93 1.97 1.93 1.92 1.98 2.04 2.05 2.03 2.02 1.99 1.98 1.86 1.70 1.65 1.63 1.65 1.68 1.71 1.69 1.77 1.92 1.94 1.99 2.04 1.87 1.90 1.71 1.54 1.55 1.59 1.65 1.75 1.89 1.83 1.76 1.83 1.54 1.63
1.89 1.97 2.01 1.95 1.94 1.94 1.98 1.98 1.90 1.95 1.98 2.00 2.00 1.98 2.01 2.00 1.95 1.82 1.68 1.70 1.71 1.69 1.68 1.73 1.84 1.91 1.95 2.01 2.01 2.09 1.97 1.82 1.74 1.69 1.62 1.61 1.73 1.83 1.82 1.67 1.80 1.61 1.75
1.84 1.96 2.03 2.02 1.96 1.94 1.96 1.96 1.92 1.92 1.94 1.94 1.98 2.02 2.05 2.02 1.93 1.87 1.69 1.63 1.66 1.72 1.74 1.80 1.94 1.98 1.99 1.97 1.94 2.02 2.06 1.90 1.83 1.84 1.75 1.82 1.70 1.77 1.87 1.70 1.62 1.66 1.79
1.76 1.92 2.02 2.02 1.96 1.92 1.88 1.85 1.92 1.98 1.99 2.01 2.04 2.07 2.08 1.98 1.90 1.87 1.71 1.70 1.80 2.02 2.04 1.95 1.90 2.03 2.03 1.95 1.87 2.08 2.01 1.90 1.84 1.83 1.88 1.94 1.85 1.82 1.91 1.75 1.61 1.72 1.70
1.83 1.90 1.98 1.99 1.92 1.87 1.83 1.93 1.92 1.97 2.01 2.05 2.09 2.05 2.02 1.97 1.96 1.90 1.79 1.79 1.95 2.06 2.05 2.05 1.95 1.94 2.01 2.04 2.00 2.06 2.04 1.98 1.91 1.81 1.91 1.96 1.86 1.82 1.89 1.92 1.67 1.63 1.61
1.87 1.86 1.93 1.92 1.92 1.97 1.92 1.96 2.01 2.09 2.11 2.08 2.15 2.09 2.11 2.09 2.01 2.06 1.92 1.94 2.01 2.09 2.09 2.05 1.91 1.82 1.99 2.06 2.08 2.06 2.05 2.08 1.96 1.92 1.90 1.94 1.95 1.90 1.87 1.87 1.81 1.55 1.49
1.91 1.96 1.91 1.91 1.89 1.94 2.08 2.11 2.10 2.05 2.18 2.21 2.27 2.25 2.18 2.15 2.08 2.12 2.12 2.05 2.03 2.10 2.10 2.00 1.84 1.82 1.98 2.02 2.02 2.10 2.09 2.08 2.06 1.98 1.97 1.93 1.96 1.98 1.95 1.82 1.56 1.63 1.37
1.71 1.90 1.96 1.95 1.91 1.97 2.11 2.11 2.16 2.22 2.25 2.24 2.16 2.08 2.08 2.24 2.17 2.15 2.14 2.06 2.09 2.06 2.05 1.96 1.92 1.86 2.00 2.04 1.96 2.07 2.06 2.06 2.03 2.04 2.06 2.03 1.99 2.06 2.02 1.91 1.58 1.59 1.52
1.72 1.84 1.91 1.97 1.97 1.98 2.05 2.10 2.17 2.24 2.19 2.13 2.06 2.17 2.27 2.21 2.16 2.15 2.16 2.06 2.02 2.02 1.92 1.85 1.90 2.02 1.95 1.95 1.92 2.00 2.06 2.00 2.00 2.04 2.04 2.05 2.04 2.09 2.01 1.98 1.73 1.63 1.63
1.65 1.80 1.92 1.99 1.96 1.94 2.06 2.13 2.12 2.13 2.09 2.07 2.13 2.19 2.19 2.14 2.14 2.14 2.09 2.04 2.00 1.97 1.78 1.70 1.85 1.89 1.93 1.96 1.90 1.90 1.90 1.89 1.96 2.01 2.03 2.08 2.02 2.03 2.01 2.09 1.93 1.75 1.74
1.75 1.84 1.91 2.00 1.99 1.98 2.00 2.12 2.10 2.08 2.02 2.05 2.08 2.15 2.19 2.12 2.08 2.09 2.05 1.93 1.94 1.78 1.82 1.97 1.95 1.90 1.92 1.91 1.96 1.94 1.89 1.92 2.00 2.02 2.03 2.06 2.03 2.01 1.96 2.08 1.91 1.78 1.79
1.83 1.78 1.94 1.96 2.02 2.02 1.97 2.07 2.09 2.08 2.04 1.99 2.08 2.17 2.16 2.17 2.10 2.09 2.01 1.90 1.75 1.78 2.04 2.07 2.00 1.94 1.90 1.90 1.99 1.94 1.96 1.91 2.00 1.98 2.04 2.06 2.05 2.10 2.03 2.04 1.90 1.84 1.70
1.83 1.81 1.84 1.94 2.05 1.99 1.98 2.07 2.09 2.11 2.09 1.98 2.04 2.16 2.16 2.17 2.14 2.15 1.99 1.88 1.70 1.88 2.01 2.04 2.00 1.97 1.94 1.98 1.93 1.88 1.80 1.83 1.80 1.87 1.95 1.99 2.02 2.01 2.05 2.09 2.03 1.92 1.63
1.86 1.79 1.87 1.92 1.98 1.97 2.02 2.07 2.08 2.13 2.12 2.01 2.00 2.16 2.16 2.14 2.14 2.14 2.00 1.93 1.68 1.79 2.07 2.07 2.06 1.94 2.03 1.88 1.86 1.77 1.80 1.78 1.71 1.75 1.86 1.92 1.94 1.94 1.97 1.96 2.03 2.00 1.89
1.83 1.83 1.81 1.90 1.87 1.93 1.96 1.96 2.00 2.09 2.06 1.98 2.07 2.17 2.15 2.16 2.14 2.13 2.03 1.98 1.77 1.92 2.06 2.08 2.02 2.02 2.01 1.84 1.80 1.85 1.78 1.66 1.65 1.59 1.65 1.79 1.89 1.88 1.83 1.94 1.96 1.97 2.01
1.81 1.83 1.81 1.80 1.86 1.88 1.91 1.92 1.92 1.94 1.98 2.16 2.19 2.20 2.16 2.15 2.15 2.12 2.10 2.00 1.91 1.98 2.00 2.01 1.99 2.07 2.00 1.87 1.76 1.84 1.86 1.70 1.65 1.65 1.56 1.51 1.67 1.78 1.83 1.77 1.83 1.88 1.94
1.70 1.68 1.69 1.69 1.78 1.85 1.79 1.76 1.73 1.89 2.04 2.08 2.15 2.22 2.20 2.18 2.19 2.15 2.10 2.06 1.85 1.84 1.93 2.01 2.01 1.93 1.93 2.01 1.77 1.71 1.81 1.73 1.63 1.60 1.59 1.57 1.51 1.55 1.68 1.77 1.72 1.82 1.87
1.54 1.57 1.62 1.67 1.77 1.82 1.90 1.90 2.03 2.08 2.10 2.18 2.25 2.25 2.28 2.25 2.27 2.16 2.13 2.06 1.81 1.75 1.89 2.02 1.96 1.86 1.88 2.01 1.75 1.68 1.40 1.60 1.57 1.67 1.64 1.59 1.54 1.54 1.52 1.61 1.78 1.67 1.83
1.50 1.55 1.63 1.77 1.88 1.98 2.08 2.09 2.05 2.13 2.13 2.06 2.08 2.13 2.23 2.28 2.25 2.19 2.15 2.05 1.82 1.89 1.87 1.98 1.97 1.81 1.77 1.92 1.92 1.77 1.54 1.41 1.51 1.74 1.72 1.67 1.55 1.48 1.53 1.54 1.61 1.71 1.61
1.58 1.74 1.80 1.82 1.87 2.02 2.11 2.04 2.00 1.94 1.83 1.93 2.02 2.09 2.13 2.20 2.18 2.10 1.99 1.90 1.91 1.89 1.85 1.92 2.01 1.85 1.83 1.73 1.86 1.88 1.90 1.76 1.52 1.46 1.73 1.73 1.71 1.61 1.53 1.51 1.55 1.56 1.65
1.59 1.66 1.75 1.83 1.88 1.95 1.98 2.02 2.00 1.87 1.92 1.97 1.96 1.97 2.02 2.11 2.13 2.08 1.90 1.81 1.81 1.80 1.84 1.86 1.88 1.87 1.84 1.83 1.81 1.78 1.81 1.83 1.80 1.62 1.45 1.63 1.76 1.71 1.65 1.57 1.62 1.62 1.56
1.70 1.72 1.77 1.77 1.78 1.84 1.89 1.91 1.91 1.85 1.86 1.83 1.87 1.85 1.88 1.98 2.03 2.05 2.00 1.73 1.59 1.70 1.74 1.79 1.78 1.83 1.86 1.85 1.86 1.77 1.80 1.77 1.73 1.73 1.62 1.66 1.68 1.82 1.78 1.71 1.65 1.65 1.64
Wind_Speed
12 13 13 13 14 15 15 16 16 15 15 15 15 13 12 11 10 10 10 9 9 8 8 7 7 6 6 6 5 5 6 7 7 8 9 9 9 10 11 11 11 12 12
13 13 13 13 14 14 15 15 15 14 14 14 14 13 11 10 9 8 8 7 7 6 6 6 5 5 5 4 4 4 5 5 6 7 8 8 8 9 10 11 11 12 12
13 13 13 13 13 14 14 14 14 13 13 13 12 11 10 9 8 7 6 6 5 5 5 5 4 4 3 3 3 3 3 4 5 4 6 7 8 9 10 11 11 11 12
13 13 13 13 13 13 13 13 13 12 11 11 11 10 9 8 6 5 5 4 4 4 4 3 3 3 2 1 1 1 3 3 4 1 7 7 8 10 10 11 11 11 12
13 13 13 13 12 12 12 11 11 11 10 10 10 9 9 7 6 4 4 3 3 2 2 3 3 2 2 1 0 2 2 3 3 1 10 8 9 9 10 11 11 11 11
13 13 13 13 12 11 11 10 10 10 10 9 9 8 8 7 6 4 3 2 1 1 1 2 2 3 3 2 1 1 1 2 2 5 9 8 7 7 10 10 10 11 11
13 13 13 12 11 11 10 10 10 9 9 8 8 8 8 7 6 4 3 1 1 1 2 3 3 3 3 3 2 1 2 2 3 5 8 8 8 7 9 12 10 12 12
13 13 13 12 11 10 10 9 9 8 9 8 7 8 8 7 6 5 3 2 2 2 3 3 3 3 3 3 3 1 2 2 3 4 7 8 8 8 11 15 12 12 12
13 13 13 12 11 10 10 9 8 7 7 8 8 7 8 7 5 5 3 2 2 3 3 3 3 3 3 3 2 1 1 2 3 4 6 9 9 11 12 14 14 13 13
13 14 13 12 11 10 9 8 7 6 6 7 8 8 8 8 6 5 5 5 4 3 3 2 3 3 3 3 2 1 1 2 3 3 5 8 11 13 15 16 17 15 15
14 14 13 12 11 10 9 8 7 6 6 5 5 8 8 7 7 6 6 5 5 4 3 2 2 3 3 3 3 2 2 3 5 5 6 8 12 13 14 18 19 16 15
15 15 13 13 11 11 9 8 7 6 5 5 5 7 9 8 8 6 6 6 6 5 4 3 3 3 3 3 3 3 3 4 4 5 5 7 11 13 15 17 22 18 17
15 15 14 13 12 11 10 8 7 6 4 3 5 7 9 9 8 6 6 5 4 4 3 3 3 3 3 3 3 3 3 3 2 3 3 4 9 12 15 15 22 21 18
14 15 15 14 13 12 11 9 7 6 5 4 4 5 8 9 8 7 5 4 4 4 3 2 3 2 3 3 4 3 2 1 1 2 2 3 6 13 12 14 22 23 20
13 14 15 15 14 13 12 10 8 6 5 5 5 5 7 10 10 9 6 5 4 3 3 3 2 2 2 2 3 3 2 1 0 1 2 4 6 9 12 15 21 21 20
13 14 14 15 15 14 13 12 10 8 6 6 6 6 6 8 7 7 6 5 4 3 2 2 2 2 2 2 3 3 2 1 0 1 2 3 6 8 13 15 20 20 20
12 13 13 13 14 14 13 13 11 10 8 7 7 5 6 7 9 8 8 7 5 3 3 3 2 2 2 3 3 2 1 0 1 2 2 2 5 8 11 15 17 20 20
12 13 13 13 13 13 13 13 12 11 10 9 8 7 6 7 7 9 8 8 6 4 3 4 3 2 3 4 2 1 1 1 2 2 2 2 4 6 9 13 16 19 21
12 12 13 12 12 12 12 12 12 11 11 10 9 9 9 9 9 10 10 9 7 5 4 3 2 2 2 2 1 1 1 2 2 2 2 2 4 6 7 11 14 17 20
11 11 12 11 11 11 10 10 10 11 11 10 9 10 11 11 11 11 12 11 9 6 5 4 3 2 1 1 1 1 1 1 2 2 2 3 4 5 6 9 12 14 18
11 11 11 10 10 10 10 9 9 10 10 10 10 10 11 12 13 13 13 14 11 8 6 5 5 3 2 1 1 3 1 1 2 2 2 3 4 5 6 7 9 12 15
9 8 9 9 9 9 9 8 7 8 8 8 9 9 8 10 12 13 14 14 12 9 6 5 5 4 3 2 2 2 2 2 3 2 2 3 3 4 6 7 7 10 12
8 7 7 7 7 7 6 8 6 6 6 6 6 7 7 8 11 11 13 14 13 11 8 6 5 5 4 4 3 3 3 3 3 3 4 3 3 4 5 7 8 9 11
7 7 6 5 5 6 5 6 7 6 5 4 3 3 3 6 9 10 11 13 13 11 10 8 6 6 5 4 4 4 4 5 4 3 5 5 5 5 6 6 7 9 10
7 6 5 5 4 4 4 5 5 6 5 5 4 4 4 6 8 9 11 13 13 12 11 10 8 7 6 6 5 4 6 6 6 6 5 5 6 7 7 8 8 9 10
6 5 4 4 3 3 4 4 5 5 5 5 5 5 5 6 8 10 11 13 13 13 11 10 9 9 8 8 7 6 6 6 6 5 7 6 6 7 9 9 10 10 10
Wind_Direction
138 136 132 129 130 134 133 133 134 135 136 136 136 134 129 124 119 113 107 103 100 94 88 84 81 80 82 94 100 102 109 115 117 117 119 116 114 117 118 116 114 115 116
141 141 138 133 131 135 138 138 137 138 139 139 139 138 133 128 123 118 110 105 100 93 83 77 76 75 80 88 101 111 115 122 126 128 125 122 119 119 122 122 117 118 117
146 144 142 139 137 137 141 143 144 142 144 145 144 144 140 135 128 122 115 106 100 91 77 71 69 69 74 83 98 125 140 142 139 137 141 135 129 124 126 125 121 122 120
151 149 147 145 143 144 145 149 150 150 151 152 154 155 152 145 136 130 121 111 100 86 69 61 54 53 52 57 104 141 162 175 189 264 166 150 141 133 129 129 126 126 124
156 154 153 151 149 149 151 154 157 159 157 159 160 164 163 159 152 147 136 122 105 74 55 36 30 25 4 344 172 134 151 174 206 200 172 150 139 140 134 140 134 132 129
161 160 159 157 156 156 157 159 160 165 165 165 174 171 175 180 174 168 163 148 125 56 22 5 4 353 333 327 3 209 164 162 159 159 167 169 160 154 157 144 142 141 136
165 165 163 163 162 162 164 164 170 174 180 182 184 187 184 184 189 189 185 204 227 305 326 334 335 340 355 10 32 183 166 169 161 158 175 179 176 175 175 167 151 150 144
170 170 169 168 167 167 168 169 174 182 191 195 194 192 198 195 196 200 212 234 261 280 309 322 326 332 359 18 31 102 158 173 177 182 185 183 186 182 177 175 164 159 154
175 176 174 173 174 173 173 173 177 180 192 201 199 200 195 197 201 208 232 248 266 280 302 315 319 325 344 359 18 357 175 176 180 194 204 207 210 204 182 180 177 169 161
184 182 181 181 181 182 183 185 186 189 191 200 209 208 202 205 215 225 243 256 270 275 292 309 319 328 334 342 326 312 224 205 210 219 220 218 209 198 197 194 181 174 169
189 187 188 188 189 190 189 191 194 198 205 208 224 212 207 215 231 246 250 265 260 265 272 306 319 330 327 335 325 296 267 259 243 251 242 225 210 202 201 190 180 176 173
191 191 194 194 194 194 196 198 201 203 212 222 230 223 226 234 227 243 256 263 257 248 251 289 306 326 328 329 327 300 300 274 264 257 242 227 213 202 183 186 188 182 177
193 196 199 198 198 199 202 202 209 215 226 239 247 242 227 227 236 244 253 255 231 229 245 271 305 317 329 340 341 328 305 298 270 253 242 218 210 198 188 192 189 188 183
197 201 202 203 203 204 206 209 214 223 231 246 263 244 229 231 232 238 241 229 216 225 239 261 287 321 338 341 335 331 319 314 274 260 219 180 169 176 189 188 190 186 186
201 204 206 206 207 208 210 214 220 227 239 249 260 263 251 239 233 226 222 210 205 219 243 262 273 295 323 346 3 358 354 316 265 130 163 180 174 182 185 177 177 184 188
203 204 206 208 210 212 214 218 223 229 243 257 265 267 264 227 222 210 211 211 213 228 256 249 258 283 315 320 344 349 322 324 198 158 134 167 185 188 185 183 188 189 190
203 203 203 205 209 212 216 221 227 234 246 256 262 266 264 231 225 220 221 215 217 237 247 230 246 280 320 323 322 333 335 210 154 139 148 145 174 190 191 193 191 195 194
204 202 204 205 207 212 217 222 231 240 246 255 259 257 250 233 225 217 212 213 217 233 239 217 259 267 307 316 308 321 60 138 142 150 150 156 170 178 187 192 195 198 199
201 201 202 205 210 213 219 225 233 240 245 254 257 254 247 236 231 222 216 216 216 227 222 222 247 276 310 318 17 115 102 128 137 138 142 149 160 167 179 191 196 200 201
196 197 202 207 209 212 218 226 234 239 246 251 255 253 244 238 235 228 221 220 216 225 227 229 249 255 324 318 226 183 166 139 152 147 143 154 161 169 175 183 193 200 203
188 194 199 202 207 211 219 226 236 240 243 249 254 249 250 242 234 230 220 216 217 221 233 239 236 254 283 313 212 208 211 183 171 164 162 167 176 183 184 184 194 201 205
176 183 192 199 202 210 218 223 234 230 236 253 255 261 254 239 231 225 219 214 213 219 231 234 238 244 253 239 224 233 207 209 201 201 191 192 194 195 198 197 195 196 200
158 164 172 185 191 195 209 207 206 219 242 253 259 256 248 235 218 210 208 207 213 220 228 228 229 238 237 225 247 262 255 235 217 229 224 215 206 203 205 205 204 201 201
151 153 154 164 179 195 210 204 219 232 243 256 250 246 235 210 206 210 212 210 214 218 223 230 241 235 238 247 259 256 265 254 249 243 232 228 225 219 215 210 209 209 207
146 148 154 164 173 187 199 218 234 243 251 258 254 253 240 224 221 217 212 212 213 217 226 233 235 234 243 250 257 267 265 244 260 246 246 228 237 233 226 221 218 217 214
157 166 172 181 191 199 212 228 242 257 262 262 261 258 247 235 226 222 219 217 218 223 228 231 237 243 249 254 259 263 270 243 239 252 249 249 255 242 234 230 226 222 220